Marrakech, Morocco

12:07 PM WET on February 11, 2016 (GMT +0000)
Menara

Weather History for GMMX - October, 2011

Change the Weather History Date:

Monday, October 10, 2011

  Actual Average Record
Temperature  
Mean Temperature 80 °F -  
Max Temperature 98 °F 77 °F 98 °F (2011)
Min Temperature 62 °F 55 °F 53 °F (1996)
Cooling Degree Days 15    
Growing Degree Days 30 (Base 50)    
Moisture  
Dew Point 46 °F    
Average Humidity 33    
Maximum Humidity 60    
Minimum Humidity 7    
Precipitation  
Precipitation 0.00 in 0.04 in - ()
Sea Level Pressure  
Sea Level Pressure 30.16 in    
Wind  
Wind Speed 4 mph ()    
Max Wind Speed 13 mph    
Max Gust Speed -    
Visibility 4.7 miles    
Events      
Averages and records for this station are not official NWS values.
T = Trace of Precipitation, MM = Missing Value Source: Averaged Metar Reports

Daily Weather History Graph

Daily Weather History Graph

Search for Another Location

Airport or City:

Trip Planner

Search our weather history database for the weather conditions in past years. The results will help you decide how hot, cold, wet, or windy it might be!

Date:

Astronomy

Oct. 10, 2011 Rise Set
Actual Time 6:31 AM WET 6:06 PM WET
Civil Twilight 6:07 AM WET 6:30 PM WET
Nautical Twilight 5:38 AM WET 6:59 PM WET
Astronomical Twilight 5:10 AM WET 7:27 PM WET
Moon 5:03 PM WET (10/10) 5:02 AM WET (10/10)
Length of Visible Light 12h 23m
Length of Day
11h 34m
Waxing Gibbous, 98% of the Moon is Illuminated
Oct 10
Waxing Gibbous
Oct 12
Full
Oct 20
Last Quarter
Oct 26
New
Nov 2
First Quarter

Hourly Weather History & Observations

Time (WET) Temp. Dew Point Humidity Pressure Visibility Wind Dir Wind Speed Gust Speed Precip Events Conditions
12:00 AM 71.6 °F 55.4 °F 57% 30.15 in - SW 4.6 mph - N/A   Clear
12:30 AM 71.6 °F 55.4 °F 57% 30.15 in - WSW 3.5 mph - N/A   Clear
1:00 AM 71.6 °F 53.6 °F 53% 30.15 in - SSW 1.2 mph - N/A   Clear
1:30 AM 69.8 °F 53.6 °F 56% 30.15 in - ESE 3.5 mph - N/A   Clear
2:00 AM 68.0 °F 53.6 °F 60% 30.15 in - ESE 2.3 mph - N/A   Clear
2:30 AM 69.8 °F 50.0 °F 49% 30.12 in - SE 3.5 mph - N/A   Clear
3:00 AM 67 °F 49 °F 41% 30.09 in 6 mi East 4.6 mph - -  
3:00 AM 68.0 °F 50.0 °F 52% 30.12 in 6.2 mi East 4.6 mph - N/A   Unknown
3:30 AM 68.0 °F 50.0 °F 52% 30.12 in - ENE 3.5 mph - N/A   Clear
4:00 AM 66.2 °F 48.2 °F 52% 30.12 in - East 5.8 mph - N/A   Clear
4:30 AM 66.2 °F 48.2 °F 52% 30.12 in - Variable 1.2 mph - N/A   Clear
5:00 AM 66.2 °F 48.2 °F 52% 30.12 in - ENE 4.6 mph - N/A   Clear
5:30 AM 64.4 °F 48.2 °F 56% 30.12 in - East 5.8 mph - N/A   Clear
6:00 AM 64 °F 48 °F 45% 30.11 in 6 mi ENE 2.3 mph - -  
6:00 AM 64.4 °F 48.2 °F 56% 30.12 in - ENE 2.3 mph - N/A   Clear
6:30 AM 64.4 °F 48.2 °F 56% 30.15 in - Calm Calm - N/A   Clear
7:00 AM 66.2 °F 46.4 °F 49% 30.15 in - ESE 3.5 mph - N/A   Clear
7:30 AM 69.8 °F 48.2 °F 46% 30.15 in 4.3 mi East 3.5 mph - N/A   Unknown
8:00 AM 73.4 °F 46.4 °F 38% 30.18 in 3.7 mi ESE 4.6 mph - N/A   Unknown
8:30 AM 77.0 °F 48.2 °F 36% 30.18 in - East 3.5 mph - N/A   Clear
9:00 AM 81 °F 47 °F 20% 30.12 in 6 mi SE 3.5 mph - -  
9:00 AM 80.6 °F 48.2 °F 32% 30.18 in - SE 3.5 mph - N/A   Clear
9:30 AM 84.2 °F 48.2 °F 29% 30.21 in - ENE 3.5 mph - N/A   Clear
10:00 AM 86.0 °F 48.2 °F 27% 30.21 in 6.2 mi East 3.5 mph - N/A   Partly Cloudy
10:30 AM 89.6 °F 48.2 °F 24% 30.21 in 6.2 mi Variable 2.3 mph - N/A   Partly Cloudy
11:00 AM 91.4 °F 46.4 °F 21% 30.18 in 5.0 mi Variable 3.5 mph - N/A   Partly Cloudy
11:30 AM 93.2 °F 48.2 °F 21% 30.18 in 5.0 mi NW 3.5 mph - N/A   Partly Cloudy
11:45 AM 94 °F 45 °F 11% 30.07 in 5 mi NNW 5.8 mph - -   Scattered Clouds
12:00 PM 93.2 °F 44.6 °F 19% 30.18 in 5.0 mi NNW 5.8 mph - N/A   Partly Cloudy
12:30 PM 95.0 °F 42.8 °F 16% 30.18 in 3.7 mi North 5.8 mph - N/A   Partly Cloudy
1:00 PM 96.8 °F 41.0 °F 15% 30.15 in 3.7 mi NNW 5.8 mph - N/A   Partly Cloudy
1:30 PM 96.8 °F 42.8 °F 16% 30.15 in 3.7 mi Variable 4.6 mph - N/A   Partly Cloudy
2:00 PM 96.8 °F 41.0 °F 15% 30.15 in 3.7 mi NNW 8.1 mph - N/A   Partly Cloudy
2:30 PM 96.8 °F 41.0 °F 15% 30.12 in 3.7 mi NNW 9.2 mph - N/A   Partly Cloudy
3:00 PM 97 °F 40 °F 7% 30.01 in 6 mi North 5.8 mph - -   Partly Cloudy
3:00 PM 96.8 °F 41.0 °F 15% 30.12 in 6.2 mi North 5.8 mph - N/A   Scattered Clouds
3:30 PM 98.6 °F 41.0 °F 14% 30.12 in 6.2 mi North 4.6 mph - N/A   Scattered Clouds
4:00 PM 96.8 °F 41.0 °F 15% 30.12 in 6.2 mi SW 4.6 mph - N/A   Scattered Clouds
4:30 PM 96.8 °F 39.2 °F 14% 30.12 in 6.2 mi WSW 6.9 mph - N/A   Scattered Clouds
7:00 PM 87.8 °F 39.2 °F 18% 30.15 in 5.0 mi NE 4.6 mph - N/A   Scattered Clouds
7:30 PM 86.0 °F 41.0 °F 20% 30.18 in 5.0 mi NNE 5.8 mph - N/A   Scattered Clouds
8:00 PM 86.0 °F 46.4 °F 25% 30.18 in 5.0 mi North 12.7 mph - N/A   Scattered Clouds
8:30 PM 84.2 °F 44.6 °F 25% 30.21 in 3.1 mi NNE 9.2 mph - N/A   Scattered Clouds
9:00 PM 84.2 °F 44.6 °F 25% 30.21 in 3.1 mi NNE 8.1 mph - N/A   Scattered Clouds
9:30 PM 82.4 °F 44.6 °F 26% 30.21 in 3.1 mi NNE 3.5 mph - N/A   Scattered Clouds
10:00 PM 82.4 °F 42.8 °F 25% 30.24 in 3.1 mi SE 5.8 mph - N/A   Scattered Clouds
10:30 PM 80.6 °F 46.4 °F 30% 30.24 in 3.1 mi SW 6.9 mph - N/A   Partly Cloudy
11:00 PM 78.8 °F 44.6 °F 30% 30.24 in 3.1 mi SW 8.1 mph - N/A   Unknown
11:30 PM 77.0 °F 46.4 °F 34% 30.24 in 3.1 mi SW 3.5 mph - N/A   Unknown